| time (UTC) | temp F | wind direction | speed MPH | gust MPH | rain 1hr in | rain 24hr in | rain mn in | humidity % | barometer mb |
| 20260904183029 | 59 | 159 | 0.0 | 2.0 | 0.00 | 0.01 | 0.01 | 68 | 1004.0 |
| 20260904181543 | 57 | 159 | 0.0 | 4.0 | 0.00 | 0.01 | 0.01 | 73 | 1004.1 |
| 20260904180026 | 57 | 159 | 1.0 | 5.0 | 0.00 | 0.01 | 0.01 | 75 | 1003.8 |
| 20260904174525 | 56 | 159 | 0.0 | 3.0 | 0.00 | 0.01 | 0.01 | 78 | 1003.8 |
| 20260904173026 | 55 | 159 | 0.0 | 7.0 | 0.00 | 0.01 | 0.01 | 79 | 1003.7 |
| 20260904171521 | 55 | 160 | 2.0 | 7.0 | 0.00 | 0.01 | 0.01 | 79 | 1003.3 |
| 20260904170021 | 55 | 105 | 0.0 | 5.0 | 0.00 | 0.01 | 0.01 | 79 | 1003.2 |
| 20260904164520 | 55 | 105 | 0.0 | 3.0 | 0.01 | 0.01 | 0.01 | 80 | 1003.2 |
| 20260904163019 | 56 | 360 | 1.0 | 7.0 | 0.01 | 0.01 | 0.01 | 76 | 1003.0 |
| 20260904161516 | 56 | 360 | 0.0 | 3.0 | 0.01 | 0.01 | 0.01 | 77 | 1002.9 |
| 20260904160015 | 57 | 360 | 0.0 | 0.0 | 0.01 | 0.01 | 0.01 | 71 | 1003.2 |
| 20260904154509 | 57 | 360 | 0.0 | 0.0 | 0.00 | 0.00 | 0.00 | 68 | 1002.9 |
| 20260904153016 | 58 | 360 | 0.0 | 6.0 | 0.00 | 0.00 | 0.00 | 65 | 1002.8 |
| 20260904151506 | 58 | 360 | 0.0 | 0.0 | 0.00 | 0.00 | 0.00 | 61 | 1002.7 |
| 20260904150005 | 58 | 360 | 0.0 | 4.0 | 0.00 | 0.00 | 0.00 | 61 | 1002.6 |
| 20260904144505 | 58 | 360 | 0.0 | 4.0 | 0.00 | 0.00 | 0.00 | 62 | 1002.4 |
| 20260904143001 | 57 | 360 | 2.0 | 7.0 | 0.00 | 0.00 | 0.00 | 61 | 1002.3 |
| 20260904141606 | 58 | 360 | 0.0 | 4.0 | 0.00 | 0.00 | 0.00 | 61 | 1002.2 |
| 20260904140055 | 58 | 170 | 3.0 | 10.0 | 0.00 | 0.00 | 0.00 | 59 | 1002.1 |
| 20260904134559 | 58 | 360 | 3.0 | 12.0 | 0.00 | 0.00 | 0.00 | 58 | 1001.9 |
| 20260904133051 | 58 | 360 | 4.0 | 12.0 | 0.00 | 0.00 | 0.00 | 57 | 1002.0 |
| 20260904131549 | 58 | 171 | 6.0 | 11.0 | 0.00 | 0.00 | 0.00 | 55 | 1001.8 |
| 20260904130049 | 59 | 360 | 4.0 | 9.0 | 0.00 | 0.00 | 0.00 | 55 | 1001.7 |
| 20260904124548 | 59 | 360 | 7.0 | 15.0 | 0.00 | 0.00 | 0.00 | 54 | 1001.7 |
| 20260904123047 | 59 | 165 | 2.0 | 11.0 | 0.00 | 0.00 | 0.00 | 54 | 1001.5 |
| 20260904121547 | 59 | 360 | 5.0 | 13.0 | 0.00 | 0.00 | 0.00 | 54 | 1001.5 |
| 20260904120050 | 59 | 360 | 6.0 | 10.0 | 0.00 | 0.00 | 0.00 | 53 | 1001.5 |
| 20260904114546 | 59 | 360 | 5.0 | 11.0 | 0.00 | 0.00 | 0.00 | 53 | 1001.5 |
| 20260904113046 | 59 | 360 | 3.0 | 8.0 | 0.00 | 0.00 | 0.00 | 54 | 1001.5 |
| 20260904111551 | 59 | 360 | 3.0 | 15.0 | 0.00 | 0.00 | 0.00 | 52 | 1001.5 |
| 20260904110044 | 59 | 360 | 7.0 | 14.0 | 0.00 | 0.00 | 0.00 | 53 | 1001.5 |
| 20260904104551 | 59 | 360 | 2.0 | 15.0 | 0.00 | 0.00 | 0.00 | 55 | 1001.4 |
| 20260904103041 | 59 | 360 | 4.0 | 10.0 | 0.00 | 0.00 | 0.00 | 53 | 1001.1 |
| 20260904101540 | 59 | 360 | 6.0 | 16.0 | 0.00 | 0.00 | 0.00 | 53 | 1001.2 |
| 20260904100041 | 59 | 360 | 8.0 | 16.0 | 0.00 | 0.00 | 0.00 | 54 | 1001.2 |
| 20260904094539 | 59 | 360 | 5.0 | 14.0 | 0.00 | 0.00 | 0.00 | 54 | 1001.0 |
| 20260904093039 | 59 | 360 | 4.0 | 15.0 | 0.00 | 0.00 | 0.00 | 55 | 1001.2 |
| 20260904091537 | 59 | 360 | 9.0 | 14.0 | 0.00 | 0.00 | 0.00 | 55 | 1001.2 |
| 20260904090035 | 58 | 360 | 9.0 | 16.0 | 0.00 | 0.00 | 0.00 | 56 | 1001.2 |
| 20260904084539 | 59 | 360 | 11.0 | 20.0 | 0.00 | 0.00 | 0.00 | 55 | 1001.5 |
| 20260904083036 | 59 | 360 | 4.0 | 18.0 | 0.00 | 0.00 | 0.00 | 54 | 1001.5 |
| 20260904081530 | 59 | 140 | 8.0 | 16.0 | 0.00 | 0.00 | 0.00 | 53 | 1001.5 |
| 20260904080034 | 59 | 360 | 5.0 | 14.0 | 0.00 | 0.00 | 0.00 | 53 | 1001.5 |
| 20260904074528 | 59 | 360 | 8.0 | 17.0 | 0.00 | 0.00 | 0.00 | 53 | 1001.5 |
| 20260904073025 | 59 | 360 | 4.0 | 12.0 | 0.00 | 0.00 | 0.00 | 53 | 1001.5 |
| 20260904071522 | 58 | 5 | 1.0 | 6.0 | 0.00 | 0.00 | 0.00 | 58 | 1001.6 |
| 20260904070021 | 58 | 331 | 1.0 | 8.0 | 0.00 | 0.00 | 0.00 | 59 | 1001.7 |
| 20260904064526 | 59 | 337 | 4.0 | 12.0 | 0.00 | 0.00 | 0.00 | 57 | 1001.7 |
| 20260904063026 | 59 | 320 | 4.0 | 10.0 | 0.00 | 0.00 | 0.00 | 55 | 1001.6 |
| 20260904061518 | 59 | 298 | 5.0 | 13.0 | 0.00 | 0.00 | 0.00 | 55 | 1001.6 |
| 20260904060018 | 59 | 336 | 5.0 | 16.0 | 0.00 | 0.00 | 0.00 | 55 | 1001.6 |
| 20260904054517 | 59 | 340 | 6.0 | 15.0 | 0.00 | 0.00 | 0.00 | 55 | 1001.4 |
| 20260904053020 | 59 | 319 | 6.0 | 13.0 | 0.00 | 0.00 | 0.00 | 56 | 1001.5 |
| 20260904051517 | 59 | 346 | 8.0 | 18.0 | 0.00 | 0.00 | 0.00 | 56 | 1001.6 |
| 20260904050015 | 59 | 315 | 6.0 | 18.0 | 0.00 | 0.00 | 0.00 | 54 | 1001.8 |
| 20260904044515 | 59 | 312 | 7.0 | 15.0 | 0.00 | 0.00 | 0.00 | 54 | 1001.5 |
| 20260904043013 | 59 | 333 | 4.0 | 18.0 | 0.00 | 0.00 | 0.00 | 53 | 1001.6 |
| 20260904041513 | 59 | 324 | 7.0 | 17.0 | 0.00 | 0.00 | 0.00 | 53 | 1001.6 |
| 20260904040013 | 59 | 309 | 6.0 | 17.0 | 0.00 | 0.00 | 0.00 | 53 | 1001.5 |
| 20260904034512 | 60 | 360 | 10.0 | 20.0 | 0.00 | 0.00 | 0.00 | 51 | 1001.7 |
| 20260904033010 | 60 | 107 | 7.0 | 17.0 | 0.00 | 0.00 | 0.00 | 50 | 1001.5 |
| 20260904031510 | 60 | 113 | 5.0 | 13.0 | 0.00 | 0.00 | 0.00 | 50 | 1001.5 |
| 20260904030010 | 60 | 360 | 8.0 | 14.0 | 0.00 | 0.00 | 0.00 | 50 | 1001.4 |
| 20260904024509 | 60 | 360 | 5.0 | 13.0 | 0.00 | 0.00 | 0.00 | 50 | 1001.5 |
| 20260904023009 | 60 | 169 | 9.0 | 17.0 | 0.00 | 0.00 | 0.00 | 51 | 1001.6 |
| 20260904021507 | 61 | 360 | 1.0 | 13.0 | 0.00 | 0.00 | 0.00 | 52 | 1001.5 |
| 20260904020006 | 61 | 360 | 4.0 | 13.0 | 0.00 | 0.00 | 0.00 | 50 | 1001.8 |
| 20260904014505 | 62 | 360 | 6.0 | 15.0 | 0.00 | 0.00 | 0.00 | 49 | 1001.7 |
| 20260904013004 | 63 | 360 | 3.0 | 14.0 | 0.00 | 0.00 | 0.00 | 47 | 1001.7 |
| 20260904011502 | 63 | 360 | 6.0 | 14.0 | 0.00 | 0.00 | 0.00 | 47 | 1001.9 |
| 20260904010004 | 63 | 360 | 0.0 | 9.0 | 0.00 | 0.00 | 0.00 | 47 | 1001.9 |
| 20260904004501 | 63 | 360 | 7.0 | 14.0 | 0.00 | 0.00 | 0.00 | 47 | 1002.0 |
| 20260904003100 | 63 | 169 | 7.0 | 15.0 | 0.00 | 0.00 | 0.00 | 48 | 1002.1 |
| 20260904001606 | 64 | 360 | 8.0 | 20.0 | 0.00 | 0.00 | 0.00 | 47 | 1002.2 |
| 20260904000104 | 64 | 360 | 9.0 | 17.0 | 0.00 | 0.00 | 0.00 | 47 | 1002.2 |
| 20260903234600 | 64 | 360 | 13.0 | 21.0 | 0.00 | 0.00 | 0.00 | 48 | 1002.1 |
| 20260903233057 | 64 | 360 | 9.0 | 18.0 | 0.00 | 0.00 | 0.00 | 47 | 1002.1 |
| 20260903231557 | 64 | 360 | 7.0 | 25.0 | 0.00 | 0.00 | 0.00 | 45 | 1002.3 |
| 20260903230056 | 65 | 360 | 11.0 | 19.0 | 0.00 | 0.00 | 0.00 | 44 | 1002.4 |
| 20260903224556 | 66 | 360 | 11.0 | 19.0 | 0.00 | 0.00 | 0.00 | 43 | 1002.6 |
| 20260903223056 | 67 | 360 | 9.0 | 25.0 | 0.00 | 0.00 | 0.00 | 41 | 1002.6 |
| 20260903221555 | 70 | 40 | 7.0 | 21.0 | 0.00 | 0.00 | 0.00 | 38 | 1002.7 |
| 20260903220105 | 72 | 33 | 7.0 | 19.0 | 0.00 | 0.00 | 0.00 | 36 | 1002.5 |
| 20260903214554 | 71 | 87 | 2.0 | 14.0 | 0.00 | 0.00 | 0.00 | 37 | 1002.5 |
| 20260903213053 | 72 | 40 | 8.0 | 21.0 | 0.00 | 0.00 | 0.00 | 35 | 1002.4 |
| 20260903211553 | 72 | 36 | 2.0 | 14.0 | 0.00 | 0.00 | 0.00 | 37 | 1002.1 |
| 20260903210059 | 73 | 40 | 5.0 | 16.0 | 0.00 | 0.00 | 0.00 | 35 | 1002.2 |
| 20260903204551 | 73 | 36 | 3.0 | 13.0 | 0.00 | 0.00 | 0.00 | 35 | 1002.4 |
| 20260903203047 | 72 | 35 | 2.0 | 12.0 | 0.00 | 0.00 | 0.00 | 37 | 1002.6 |
| 20260903201543 | 69 | 36 | 5.0 | 14.0 | 0.00 | 0.00 | 0.00 | 39 | 1002.8 |
| 20260903200040 | 67 | 37 | 5.0 | 12.0 | 0.00 | 0.00 | 0.00 | 40 | 1003.0 |
| 20260903194546 | 66 | 166 | 3.0 | 14.0 | 0.00 | 0.00 | 0.00 | 41 | 1003.4 |
| 20260903193043 | 66 | 57 | 1.0 | 8.0 | 0.00 | 0.00 | 0.00 | 41 | 1003.6 |
| 20260903191533 | 66 | 28 | 0.0 | 15.0 | 0.00 | 0.00 | 0.00 | 41 | 1003.9 |
| 20260903190032 | 66 | 44 | 5.0 | 10.0 | 0.00 | 0.00 | 0.00 | 39 | 1004.2 |
| 20260903184531 | 65 | 157 | 1.0 | 4.0 | 0.00 | 0.00 | 0.00 | 40 | 1004.1 |